Location: Dalton
(34.7700°N, 84.9700°W)
Time: 05:26:13
(UTC-04:00)

Envisat - Pass Details

Date: 14 October 2017
Orbit: 764 x 766 km, 98.2° (Epoch: 17 October)

Event Time Altitude Azimuth Distance (km) Brightness Sun altitude
Exits shadow 22:00:14 21° 330° (NNW) 1,681 5.1 -36.3°
Drops below altitude 10° 22:01:54 10° 337° (NNW) 2,305 5.8 -36.6°
Sets 22:04:17 0° 342° (NNW) 3,235 6.6 -37.1°
